This is the latest recevied weather packets stored in our database for station/object HECA. If no packets are shown the sender has not sent any weather packets the latest 10 day(s).
| Time | Temp. | Humidity | Pressure | Rain* | Wind** | Luminosity | Snow |
|---|---|---|---|---|---|---|---|
| 1788097999 | 33.89° C | 26% | 1009 hPa | - | - | - | - |
| 1788097401 | 33.89° C | 26% | 1009 hPa | - | - | - | - |
| 1788096802 | 33.89° C | 26% | 1009 hPa | - | - | - | - |
| 1788096201 | 32.78° C | 27% | 1016 hPa | - | - | - | - |
| 1788095601 | 32.78° C | 27% | 1016 hPa | - | - | - | - |
| 1788095001 | 32.78° C | 27% | 1016 hPa | - | - | - | - |
| 1788094404 | 32.78° C | 29% | 1009 hPa | - | - | - | - |
| 1788093801 | 32.78° C | 29% | 1009 hPa | - | - | - | - |
| 1788093201 | 33.89° C | 28% | 1009 hPa | - | - | - | - |
| 1788092599 | 33.89° C | 28% | 1009 hPa | - | - | - | - |
| 1788092001 | 33.89° C | 28% | 1009 hPa | - | - | - | - |
| 1788091402 | 33.89° C | 28% | 1009 hPa | - | - | - | - |
| 1788090803 | 32.78° C | 29% | 1009 hPa | - | - | - | - |
| 1788090201 | 32.78° C | 29% | 1009 hPa | - | - | - | - |
| 1788089598 | 32.78° C | 29% | 1009 hPa | - | - | - | - |
| 1788089007 | 30.56° C | 38% | 1010 hPa | - | - | - | - |
| 1788088401 | 30.56° C | 38% | 1010 hPa | - | - | - | - |
| 1788087803 | 30.56° C | 38% | 1010 hPa | - | - | - | - |
| 1788087215 | 30° C | 40% | 1010 hPa | - | - | - | - |
| 1788086600 | 30° C | 40% | 1010 hPa | - | - | - | - |
| 1788086003 | 30° C | 40% | 1010 hPa | - | - | - | - |
| 1788085401 | 30° C | 42% | 1010 hPa | - | - | - | - |
| 1788084801 | 30° C | 42% | 1010 hPa | - | - | - | - |
| 1788084204 | 30° C | 42% | 1010 hPa | - | - | - | - |
| 1788083601 | 30.56° C | 35% | 1010 hPa | - | - | - | - |
* Rain since midnight (hover to see other rain measurements)
** Current wind speed in m/s (hover to see current wind gust speed)